Weather in Tomashgorod

Ukraine / Rovno District     51°18′13″N   27°04′07″E
temp.,
°C
wind,
m/s
gust,
m/s
humid.,
%
clouds,
%
prec.,
mm/h
press.,
hPa
HPBL,
m
21 january, fri
fri2123:00−3wsw6127726 0.0 1004823
02:00−4wsw61480100 0.1 10041100
05:00−3w81591100 1.1 10041115
08:00−4w81684100 1.3 10041253
11:00−3w91890100 0.9 10041195
14:00−1w91580100 1.4 10041408
17:00−2w81693100 0.5 10051280
20:00−2w81594100 1.4 10051248
22 january, sat
sat2223:00−3wnw61293100 1.1 10071081
02:00−4wnw61290100 1.3 1008991
05:00−4w51294100 0.3 1007927
08:00−4w51295100 1.7 1007820
11:00−3nnw598389 0.9 1010933
14:00−3nnw5881100 1.1 1012985
17:00−4nw5984100 0.1 1015906
20:00−5nw51194100 0.6 1016757
23 january, sun
sun2323:00−4nw41195100 1.4 1017844
02:00−4nnw4994100 2.3 1018795
05:00−6n51091100 0.2 1021627
08:00−7nnw3893100 0.3 1023513
11:00−7n4785100 0.1 1026552
14:00−5n4679100 0.1 1027821
17:00−7nne3789100 0.1 1030583
20:00−10nne229794 0.1 103241
24 january, mon
mon2423:00−11nne249987 0.1 1034100
02:00−12nne149877 0.1 103570
05:00−13nne119867 0.0 103524
08:00−14nnw139975 0.0 103748
11:00−8n238669 0.0 1037234
14:00−5nnw238180 0.0 1035439
17:00−10nw119720 0.0 103612
20:00−12nw119869 0.0 103511
25 january, tue
tue2523:00−13w119867 0.0 10359
02:00−13w239870 0.0 103351
05:00−12wsw2497100 0.0 103280
08:00−11sw2796100 0.0 1030118
11:00−6sw3776100 0.0 1028233
14:00−4wsw3791100 0.1 1025348
17:00−4sw3797100 0.6 1023327
20:00−3wsw2897100 1.2 1022278